Miscellaneous Local Product
Issued by NWS Hastings, NE

Home | Current Version | Previous Version | Graphics & Text | Print | Product List | Glossary On
Versions: 1 2 3 4 5 6 7 8 9 10 11 12 13 14 15 16 17 18 19 20 21 22 23 24 25 26 27 28 29 30 31 32 33 34 35 36 37 38 39 40 41 42 43 44 45 46 47 48 49 50
000
AXUS43 KGID 231002
MISGRI

GID CWA HOURLY WEATHER ROUNDUP
NATIONAL WEATHER SERVICE HASTINGS NE
500 AM CDT TUE SEP 23 2014

NOTE: "FAIR" INDICATES FEW OR NO CLOUDS BELOW 12,000 FEET WITH NO
SIGNIFICANT WEATHER AND/OR OBSTRUCTIONS TO VISIBILITY.

...SOUTH CENTRAL NEBRASKA...

CITY           SKY/WX    TMP DP  RH WIND       PRES   REMARKS
GRAND ISLAND   LGT RAIN  58  54  86 SE10      30.09F
HASTINGS       LGT RAIN  57  52  83 SE14      30.08F
KEARNEY        CLOUDY    55  52  88 E14       30.08S
ORD            RAIN      56  54  93 SE9       30.07F
YORK           CLOUDY    57  55  94 S10       30.14S
AURORA         HVY RAIN  58  54  86 SE12      30.11S
LEXINGTON      CLOUDY    57  56  94 SE12      30.07R
HOLDREGE       LGT RAIN  56  54  91 S9        30.09R
HEBRON         RAIN      57  55  90 SE3       30.16S

...NEBRASKA PANHANDLE...

CITY           SKY/WX    TMP DP  RH WIND       PRES   REMARKS
CHADRON        PTCLDY    51  49  92 W7        29.92F
ALLIANCE       FOG       45  45 100 W5        29.97F VSB 3/4
SCOTTSBLUFF    CLEAR     50  49  96 NE5       30.00S
SIDNEY         PTCLDY    58  55  90 SW13      30.04F

...WESTERN AND NORTH CENTRAL NEBRASKA...

CITY           SKY/WX    TMP DP  RH WIND       PRES   REMARKS
VALENTINE      MOCLDY    56  52  86 S10       29.98F
AINSWORTH      MOCLDY    55  52  88 S16       30.01S
ONEILL         LGT RAIN  57  56  96 SE15      30.07F
BROKEN BOW     CLOUDY    57  54  89 SE9       30.06R
IMPERIAL       PTCLDY    57  54  89 S7        30.03F
NORTH PLATTE   MOCLDY    57  55  93 SE9       30.02F
MCCOOK         CLOUDY    56  55  97 E7        30.06S

...EASTERN NEBRASKA...

CITY           SKY/WX    TMP DP  RH WIND       PRES   REMARKS
NORFOLK        LGT RAIN  58  55  90 S12       30.13S
SO SIOUX CITY  CLOUDY    58  54  86 SE6       30.13F
TEKAMAH        CLOUDY    58  55  90 SE6       30.15S
COLUMBUS       CLOUDY    57  52  82 S6        30.15S
ALBION         LGT RAIN  56  54  91 SE8       30.11S
OMAHA EPPLEY   CLOUDY    62  52  69 S12       30.17R
OFFUTT AFB     CLOUDY    58  58  99 E6        30.17R
MILLARD        CLOUDY    61  54  77 E5        30.16S
LINCOLN        CLOUDY    59  52  77 S7        30.16F
NEBRASKA CITY    N/A     59  49  69 S7        30.18R
BEATRICE       CLOUDY    60  52  76 SE7       30.17R
FALLS CITY     CLOUDY    58  52  80 S7        30.17S

...NORTHERN KANSAS...

CITY           SKY/WX    TMP DP  RH WIND       PRES   REMARKS
GOODLAND       PTCLDY    56  55  97 S10       30.06S
HILL CITY      CLOUDY    58  56  93 S12       30.06R
NORTON         SUNNY     55  52  88 S9        30.05F
PHILLIPSBURG   LGT RAIN  57  57 100 S16G24    30.07R
SMITH CENTER   RAIN      55  54  94 SE14      30.07F
BELOIT         CLOUDY    57  55  94 SE9       30.13F
RUSSELL        HVY RAIN  59  54  83 S18G26    30.15F
CONCORDIA      RAIN      59  55  87 S6        30.18R FOG
SALINA         CLOUDY    63  52  67 S8        30.17R
TOPEKA         MOCLDY    57  52  83 E3        30.20R



USA.gov is the U.S. government's official web portal to all federal, state and local government web resources and services.